STARLINK-2095 (47679 NORAD) Tracking and Keplerian Element Data

This shows tracking and keplerian element data for the satellite.

Feedback or suggestion? Click here.




ElementValue
Catalog47679
NameSTARLINK-2095
Epoch Orbit175
Epoch Day105.91667824
Epoch Year2021
RAAN181.6828
Inclination53.0594
Eccentricity0.0001528
Argument of Perigee81.9495
Mean Anonmoly305.281
Mean Motion15.06409365
Decay Rate-0.0002538
L11 47679U 21012BM 21105.91667824 -.00025380 00000-0 -16906-2 0 9995
L22 47679 53.0594 181.6828 0001528 81.9495 305.2810 15.06409365 1758

Live tracking and technical data element details for STARLINK-2095 (NORAD 47679). STARLINK-2095 can be tracked NOW for your location showing map with azimuth and elevation plus other details from your city location.

Track the satellite on the map from your city or location and see movement details for azimuth, elevation, latitude, longitude, range, height, and movement on the map or in text.







IsCatalogInMostPopularTable: catalog: 47679, numindb: 29
Update: records affected: 1



GetName: 47679 STARLINK-2095

Hit Count: updated at: Fri, 16 Apr 2021 10:33:41 GMT